This is the latest recevied weather packets stored in our database for station/object K7AZM. If no packets are shown the sender has not sent any weather packets the latest 10 day(s).
| Time | Temp. | Humidity | Pressure | Rain* | Wind** | Luminosity | Snow |
|---|---|---|---|---|---|---|---|
| 1777581623 | 30.56° C | 10% | 1008.4 hPa | 0 mm | - | - | - |
| 1777581024 | 31.11° C | 9% | 1008.6 hPa | 0 mm | - | - | - |
| 1777580144 | 31.67° C | 10% | 1008.8 hPa | 0 mm | - | - | - |
| 1777579523 | 30.56° C | 10% | 1008.8 hPa | 0 mm | - | - | - |
| 1777579263 | 30.56° C | 10% | 1009 hPa | 0 mm | - | - | - |
| 1777577745 | 31.11° C | 10% | 1009.4 hPa | 0 mm | - | - | - |
| 1777575323 | 30° C | 12% | 1010.2 hPa | 0 mm | - | - | - |
| 1777570223 | 28.33° C | 14% | 1011.6 hPa | 0 mm | - | - | - |
| 1777569343 | 28.33° C | 14% | 1011.7 hPa | 0 mm | - | - | - |
| 1777567524 | 26.11° C | 16% | 1011.7 hPa | 0 mm | - | - | - |
| 1777565724 | 26.11° C | 17% | 1012 hPa | 0 mm | - | - | - |
| 1777564523 | 25° C | 18% | 1012.2 hPa | 0 mm | - | - | - |
| 1777563921 | 25° C | 17% | 1012.2 hPa | 0 mm | - | - | - |
| 1777563324 | 25° C | 18% | 1012.1 hPa | 0 mm | - | - | - |
| 1777561844 | 24.44° C | 19% | 1012.2 hPa | 0 mm | - | - | - |
| 1777561523 | 23.89° C | 21% | 1012.2 hPa | 0 mm | - | - | - |
| 1777560021 | 23.33° C | 22% | 1012.3 hPa | 0 mm | - | - | - |
| 1777558223 | 20° C | 26% | 1012 hPa | 0 mm | - | - | - |
| 1777557923 | 19.44° C | 26% | 1011.9 hPa | 0 mm | - | - | - |
| 1777557621 | 19.44° C | 26% | 1012 hPa | 0 mm | - | - | - |
| 1777557023 | 18.33° C | 27% | 1011.8 hPa | 0 mm | - | - | - |
| 1777556123 | 16.67° C | 29% | 1011.5 hPa | 0 mm | - | - | - |
| 1777555525 | 16.11° C | 28% | 1011.5 hPa | 0 mm | - | - | - |
| 1777553124 | 15° C | 29% | 1011.1 hPa | 0 mm | - | - | - |
| 1777552843 | 15° C | 29% | 1011 hPa | 0 mm | - | - | - |
* Rain latest hour (hover to see other rain measurements)
** Current wind speed in m/s (hover to see current wind gust speed)